Showing default

DRAGON FREEDOM-2, 61447

Orbit data source: Space-Track

DRAGON FREEDOM-2, 61447 is a payload satellite owned by SpaceX (US) in LEO that was launched on Sat, 28 Sep 2024 UTC via an FALCON 9 launch vehicle from the Air Force Eastern Test Range (AFETR). Payloads include a variety of satellites, spacecraft, and rockets equipped with specific instruments for various scientific and technological missions. These include communications satellites like Starlink; space stations such as the ISS; scientific satellites like the Hubble; Earth observation satellites from companies like Planet Labs, Umbra, and HawkEye 360; GPS; miniature CubeSats for education and research; and military/defense satellites.

Loading next visibility...
DRAGON FREEDOM-2 details
Identifier
61447, 2024-178A
Orbit
LEO
Last TLE update9 hours ago
Origin
Flag of USSpaceX (US)
ManufacturerSpaceX
MissionOperational spacecraft
Bus & MotorDRAGON CM, Unknown motor
Mass~13,055 kg wet, ~9,500 kg dry
Launch date (UTC)
2024-09-28 (2 months ago)
Launch vehicle
FALCON 9
Launch site
Air Force Eastern Test Range (AFETR)
Object type
Payload
Rocket body
Debris
Shape & HBRUnknown
Radar Cross SectionRCS unknown

Expand to show TLE details & history

TLE from 9 hours ago
0 DRAGON FREEDOM-2
1 61447U 24178A   24325.88005653  .00023406  00000-0  42009-3 0  9998
2 61447  51.6389 259.0875 0007580 250.1184 109.8988 15.49757677  8079
Epoch: 2024-11-20T21:07Z
Definitive object data (Epoch: 2024-11-20T21:07:16.884Z)
Latitude-0.00002°
Longitude-118.10267°
Altitude419.932 km
Speed7.66 km/s
True Right ascension17h 16m 20s
True Declination0° 00' 00"
Sunlit
Object was in daylight at TLE epoch
Visualization TLE readout
Latitude-9.02563°
Longitude-127.19144°
Altitude420.362 km
Speed7.659 km/s
Apparent Right ascension16h 07m 59s
Apparent Declination-24° 07' 19"
Sunlit
Object is in daylight
Visualization observer readout
Local Sidereal Time03:23:58
Azimuth326.327° NNW
Elevation-71.692°
Doppler factor1
Orbital elements
Apogee altitude423.094 km
Perigee altitude412.791 km
Semi-major axis6,796.079 km
Eccentricity0.000758
Inclination51.6389°
RAAN259.0875°
Arg. of periapsis250.1184°
True anomaly109.98045°
Mean anomaly109.8988°
Eccentric anomaly109.93963°
Mean motion3.87396 °/min
BSTAR0.00042009
Orbital period92.93 mins
Loading maneuver chart data...
Loading historical data...
Loading historical data...
Loading historical data...
Loading historical data...
Loading historical data...
Loading historical data...
Loading historical data...
Other satellites on launch #178 in the year 2024 (2024-09-28 UTC)

DRAGON FREEDOM-2 Visibility forecast

Observer location: undefined°, undefined

Span
Click to sort rows by Start time (UTC) header in descending order
Start Az.
Max El. time (UTC)
Max El. Az.
Max El.
End time (UTC)
End Az.
5 mins2024-11-21 22:03:27.362Z206.147° SW2024-11-21 22:06:27.362Z110.03° ESE32.859°2024-11-21 22:08:27.362Z68.575° E
4 mins2024-11-21 23:41:27.362Z296.344° NW2024-11-21 23:42:27.362Z322.247° NNW22.922°2024-11-21 23:45:27.362Z30.78° NE
4 mins2024-11-22 04:34:27.362Z331.181° NNW2024-11-22 04:35:27.362Z10.931° NNE38.302°2024-11-22 04:38:27.362Z110.622° ESE
|